Regional Weather Roundup
Issued by NWS Kansas City/Pleasant Hill, MO

Home | Current Version | Previous Version | Graphics & Text | Print | Product List | Glossary Off
Versions: 1 2 3 4 5 6 7 8 9 10 11 12 13 14 15 16 17 18 19 20 21 22 23 24 25 26 27

000
ASUS43 KEAX 270510
RWREAX

WEATHER ROUNDUP FOR EASTERN KANSAS AND NORTHWEST MISSOURI
NATIONAL WEATHER SERVICE KANSAS CITY/PLEASANT HILL MO
1100 PM CST SUN FEB 26 2017

KSZ040-057-103>105-MOZ028-029-037-043-270600-
...KANSAS CITY METROPOLITAN AREA...

CITY           SKY/WX    TMP DP  RH WIND       PRES   REMARKS
K.C. INTL      CLEAR     33  32  96 S8        30.02F WCI  26
K.C. DOWNTOWN  CLEAR     38  34  85 CALM      30.04S
LEES SUMMIT    CLEAR     37  36  96 S8        30.04S WCI  31
OLATHE - IXD   CLEAR     32  32 100 S7        30.04S WCI  26
OLATHE - OJC   CLEAR     32  32 100 S6        30.03S FOG     WCI  26
LAWRENCE       CLEAR     32  31  96 SE3       30.04R

$$

MOZ001>008-011>017-020>025-030>033-038>040-044>046-053-054-270600-
...NORTHERN AND CENTRAL MISSOURI...

CITY           SKY/WX    TMP DP  RH WIND       PRES   REMARKS
ST. JOSEPH     CLEAR     34  26  72 CALM      30.03S
MOSBY          CLEAR     36  34  93 SE3       30.05S
WARRENSBURG    CLEAR     36  34  93 SE3       30.05S
WHITEMAN AFB   CLEAR     35  35 100 S3        30.04F
CLINTON        CLOUDY    37  36  93 CALM      30.06F
SEDALIA        PTCLDY    37  34  89 S9        30.06F WCI  30
WARSAW         NOT AVBL
CHILLICOTHE      N/A     35  32  88 S6        30.05S WCI  30
KIRKSVILLE     CLEAR     34  31  88 SW6       30.06S WCI  29

$$

MOZ041-047>049-056>058-063>065-088>090-097-270600-
...EASTERN AND SOUTHERN MISSOURI...

CITY           SKY/WX    TMP DP  RH WIND       PRES   REMARKS
ST. LOUIS INTL CLOUDY    43  34  70 S8        30.13F
SPIRIT OF STL  CLOUDY    41  35  79 SE6       30.11F
COLUMBIA       CLOUDY    39  36  89 SE8       30.08S WCI  33
JEFFERSON CITY CLOUDY    39  36  89 E3        30.09F
ROLLA          CLOUDY    37  35  92 E8        30.05F WCI  31
OSAGE BEACH    CLOUDY    37  36  96 E5        30.07F WCI  33
SPRINGFIELD    CLOUDY    44  28  53 SE12      30.02S
BRANSON        CLOUDY    45  28  53 E6        30.04F
JOPLIN         CLEAR     37  34  89 E3        30.02F
WEST PLAINS    CLOUDY    45  24  43 E5        30.06F

$$

IAZ060-094-KSZ022-034>040-054-083-096-NEZ052-066-093-270600-
...KANSAS...SOUTHEAST NEBRASKA AND IOWA...

CITY           SKY/WX    TMP DP  RH WIND       PRES   REMARKS
TOPEKA         CLEAR     38  32  79 S6        30.03R WCI  33
MANHATTAN      CLEAR     31  22  69 CALM      30.01S
EMPORIA        CLEAR     32  26  78 SE6       30.01S WCI  26
CHANUTE        CLEAR     32  30  92 E5        30.03F WCI  27
WICHITA        PTCLDY    38  25  59 E3        29.98F
OMAHA          CLEAR     28  20  71 SE6       30.01S WCI  22
LINCOLN        CLEAR     28  22  78 S3        30.01S
FALLS CITY     CLEAR     30  21  69 NW5       30.02S WCI  25
LAMONI         PTCLDY    37  20  50 CALM      30.01F
DES MOINES     MOCLDY    31  21  66 SE8       30.03S WCI  23

$$





USA.gov is the U.S. government's official web portal to all federal, state and local government web resources and services.